{"data":{"norad_id":58411,"intl_designator":"2023-180K","name":"STARLINK-30919","alt_names":[],"object_type":"PAYLOAD","status":"ACTIVE","operator":null,"country":"US","launch_date":"2023-11-22","launch_site_code":"AFETR","launch_vehicle":null,"mission":null,"orbit_class":"UNKNOWN","rcs_meters":null,"size_class":null,"mass_kg":null,"dimensions":null,"purposes":["comms"],"wikipedia_slug":null,"has_3d_model":false,"image_url":null,"decayed_at":null,"tle_current":{"epoch":"2026-05-24T19:41:29.821920Z","epoch_age_seconds":86710,"freshness":"FRESH","line1":"1 58411U 23180K   26144.82048405  .00000533  00000+0  28895-4 0  9997","line2":"2 58411  43.0035 342.1490 0001321 255.8324 104.2381 15.27577413139177","mean_motion":15.27577413,"eccentricity":0.0001321,"inclination_deg":43.0035,"raan_deg":342.149,"arg_perigee_deg":255.8324,"mean_anomaly_deg":104.2381,"bstar":2.8895e-5,"rev_number":13917,"period_min":94.266908357331,"perigee_km":482.15047875267,"apogee_km":483.96320616584,"semimajor_km":6861.1938424593,"source":"CELESTRAK","updated_at":"2026-05-25T13:38:18.618484Z"}}}